Location: Roland
(31.1349°N, 85.4372°W)
Time: 22:54:38
(UTC+00:00)

Tiros 1 - Pass Details

Date: 23 April 2021
Orbit: 630 x 664 km, 48.4° (Epoch: 13 May)

Event Time Altitude Azimuth Distance (km) Brightness Sun altitude
Rises 21:01:51 0° 301° (WNW) 2,912 11.1 40.2°
Reaches altitude 10° 21:04:20 10° 292° (WNW) 2,002 10.6 39.7°
Maximum altitude 21:08:28 33° 228° (SW) 1,050 9.6 38.8°
Drops below altitude 10° 21:12:36 10° 164° (SSE) 2,001 9.7 38.0°
Sets 21:15:05 0° 154° (SSE) 2,910 10.4 37.4°
